Location: ?ubietov�
(48.7453°N, 19.3610°E)
Time: 09:08:44
(UTC+00:00)

Daily predictions for brighter satellites

Satellite Brightness Start Highest point End
(mag) Time Altitude Azimuth Time Altitude Azimuth Time Altitude Azimuth
YAOGAN 1 3.3 16:15:36 10° SE 16:19:26 31° ENE 16:23:16 10° N
Unknown 3.8 16:16:11 10° SW 16:20:17 63° SSE 16:24:24 10° ENE
GP-B 4.0 16:16:35 10° N 16:20:57 55° W 16:25:16 10° SSW
Unknown 3.7 16:17:51 10° SW 16:21:57 65° SSE 16:26:04 10° ENE
Unknown 3.7 16:19:30 10° SW 16:23:37 66° SSE 16:27:45 10° ENE
YAOGAN 6 3.2 16:20:52 10° SE 16:24:15 36° ENE 16:27:37 10° N
Unknown 3.7 16:21:10 10° SW 16:25:16 68° SSE 16:29:25 10° ENE
SL-14 R/B 4.1 16:22:47 10° NNW 16:26:34 54° W 16:30:18 10° S
Lacrosse 5 rocket 1.3 16:22:55 10° WNW 16:26:39 76° SW 16:30:34 10° SE
Cosmos 1939 Rocket 4.2 16:24:28 10° ESE 16:27:21 20° ENE 16:30:18 10° NNE
Unknown 3.7 16:24:26 10° SW 16:28:33 71° SSE 16:32:41 10° ENE
Unknown 3.7 16:26:09 10° SW 16:30:18 73° SSE 16:34:27 10° ENE
CZ-4C R/B 3.5 16:23:23 10° NW 16:30:29 67° SW 16:38:35 10° SSE
Unknown 3.6 16:27:48 10° SW 16:31:56 74° SSE 16:36:05 10° ENE
Meteor 1-21 Rocket 4.3 16:26:02 10° N 16:31:59 83° ENE 16:37:47 10° SSE
Cosmos 1726 Rocket 3.9 16:28:00 10° SSE 16:32:11 44° E 16:36:21 10° NNE
Cosmos 2278 Rocket 3.6 16:29:27 10° SE 16:32:54 17° E 16:36:21 10° ENE
Unknown 3.6 16:29:24 10° SW 16:33:32 75° SSE 16:37:41 10° ENE
Unknown 3.6 16:29:54 10° WSW 16:34:02 76° SSE 16:38:11 10° ENE
ATLAS CENTAUR R/B 4.1 16:32:38 10° NW 16:34:42 13° NNW 16:36:44 10° NNE
Cosmos 1844 3.9 16:30:54 10° S 16:36:25 52° ESE 16:42:02 10° NE
Unknown 3.6 16:32:34 10° SW 16:36:42 75° SSE 16:40:49 10° ENE
Cosmos 1470 3.2 16:34:22 10° SSW 16:38:20 68° WNW 16:42:19 10° N
Cosmos 1328 4.3 16:36:07 10° N 16:39:51 37° ENE 16:43:32 10° SE
Unknown 3.6 16:35:56 10° WSW 16:40:04 78° SSE 16:44:03 11° ENE
Cosmos 2239 Rocket 4.4 16:34:57 10° N 16:41:09 76° E 16:47:16 10° SSE
Unknown 3.6 16:37:31 10° WSW 16:41:40 80° SSE 16:45:36 11° ENE
Cosmos 2228 3.1 16:37:29 10° S 16:41:47 59° E 16:46:05 10° NNE
ATLAS 5 CENTAUR R/B 1.7 16:37:46 10° SW 16:42:04 86° NW 16:46:57 10° NE
Shenzhou-11 Module 3.7 16:40:26 10° SW 16:42:32 19° S 16:44:30 11° ESE
Okean-O 3.4 16:39:00 10° S 16:43:21 56° W 16:47:44 10° NNW
Unknown 3.6 16:39:27 10° WSW 16:43:36 86° SSE 16:47:28 12° ENE
Cosmos 2058 Rocket 3.5 16:40:35 10° SSE 16:44:39 39° E 16:48:43 10° NNE
Unknown 3.6 16:40:51 10° WSW 16:44:59 83° SSE 16:48:48 12° ENE
Envisat 3.1 16:40:31 10° SSE 16:45:36 87° WSW 16:50:44 10° NNW
Unknown 3.6 16:42:31 10° WSW 16:46:40 85° SSE 16:50:25 13° ENE
CZ-4 R/B 1.4 16:43:47 10° SSE 16:47:56 74° ENE 16:52:09 10° N
Cosmos 1821 Rocket 4.0 16:41:57 10° N 16:48:04 87° W 16:54:14 10° S
Cosmos 1605 Rocket 4.3 16:42:15 10° N 16:48:11 43° ENE 16:54:00 10° SE
CZ-4 R/B 4.4 16:45:44 10° SSE 16:49:51 81° ENE 16:54:00 10° NNW
Unknown 3.6 16:45:51 10° WSW 16:50:00 87° SSE 16:53:37 14° ENE
Unknown 3.6 16:47:32 10° WSW 16:51:42 89° SE 16:55:14 14° ENE
Cosmos 921 Rocket 3.2 16:48:12 10° S 16:52:35 53° ESE 16:56:57 10° NNE
Unknown 3.6 16:49:12 10° WSW 16:53:21 90° NW 16:56:50 14° ENE
Unknown 3.6 16:50:53 10° WSW 16:55:02 88° NNW 16:58:27 15° ENE
Nadezhda 3 Rocket 4.2 16:51:50 10° S 16:58:07 82° W 17:04:31 10° N
Unknown 3.6 16:54:12 10° WSW 16:58:20 85° NNW 17:01:37 16° ENE
BREEZE-M DEB (TANK) 4.0 16:54:54 10° SSW 16:58:31 21° SSE 16:59:46 16° ESE
CSL-04 Rocket 3.7 16:53:46 10° SSE 16:59:18 79° ENE 17:04:50 10° NNW
Cosmos 2084 3.5 16:55:17 10° SW 16:59:49 81° SE 17:04:18 10° NE
Unknown 3.6 16:55:47 10° WSW 16:59:56 82° NNW 17:03:08 16° ENE
Cosmos 2263 Rocket 4.1 16:55:18 10° WSW 17:00:05 27° NW 17:04:53 10° NNE
Unknown 3.7 16:56:09 10° WSW 17:00:19 78° NNW 17:03:31 16° ENE
Cosmos 1934 Rocket 4.0 16:54:46 10° N 17:01:08 78° E 17:07:30 10° SSE
Abrixas rocket 4.5 17:00:43 10° SSE 17:01:06 10° SE 17:01:06 10° SE
COSMO-SKYMED 1 2.5 16:56:51 10° NNE 17:01:13 84° ESE 17:05:34 10° SSW
Unknown 3.7 16:57:46 10° WSW 17:01:55 78° NNW 17:05:04 17° ENE
Cosmos 1356 3.7 16:58:44 10° S 17:02:01 44° E 17:05:20 10° NNE
Unknown 3.0 17:00:01 10° WNW 17:03:06 58° NNE 17:04:44 24° E
Cosmos 1535 Rocket 4.4 16:57:07 10° N 17:03:24 81° E 17:09:33 10° S
NOAA 11 4.3 16:59:19 10° SE 17:04:37 54° ENE 17:09:54 10° N
FALCON 9 DEB 4.0 17:01:24 10° WNW 17:04:43 40° N 17:06:38 21° ENE
Unknown 3.7 17:00:46 10° WSW 17:04:56 80° NNW 17:07:56 18° ENE
ASTEX 1 3.4 17:00:31 10° N 17:05:30 87° E 17:10:29 10° S
USA 116 3.2 17:03:32 10° NNE 17:06:38 56° ESE 17:09:50 10° S
Unknown 3.7 17:04:08 10° WSW 17:08:16 77° NNW 17:11:10 19° ENE
Unknown 4.0 17:06:01 10° WNW 17:09:23 40° N 17:11:10 22° ENE
Unknown 3.7 17:05:52 10° WSW 17:10:02 76° NNW 17:12:50 20° ENE
Unknown 3.7 17:07:27 10° WSW 17:11:37 74° NNW 17:14:21 21° ENE
Cosmos 1271 Rocket 4.0 17:07:59 10° NNW 17:11:48 46° W 17:15:37 10° S
Cosmos 1953 Rocket 4.3 17:09:02 10° NNW 17:13:20 56° W 17:17:35 10° S
Unknown 3.7 17:09:12 10° WSW 17:13:21 73° NNW 17:16:01 21° ENE
Unknown 3.8 17:10:22 10° WNW 17:13:39 42° N 17:15:06 26° ENE
Cosmos 1833 Rocket 3.0 17:08:49 10° NNW 17:14:14 47° NE 17:18:08 18° ESE
CZ-2D R/B 3.2 17:10:35 10° SSE 17:14:22 61° ENE 17:18:12 10° N
Unknown 3.8 17:10:38 10° WSW 17:14:42 68° NNW 17:17:16 22° ENE
ARGOS 4.3 17:15:35 21° E 17:16:55 23° ENE 17:21:04 10° N
SL-4 R/B 3.8 17:13:55 10° W 17:17:05 24° SW 17:20:04 10° SSE
Cosmos 1726 1.9 17:15:18 10° S 17:18:57 82° E 17:22:38 10° NNE
Cosmos 2058 4.3 17:15:41 10° NNE 17:18:33 21° ENE 17:18:33 21° ENE
Unknown 3.8 17:15:49 10° WSW 17:19:58 69° NNW 17:22:21 24° ENE
Gbstr 26 Del rocket 4.1 17:15:09 10° WNW 17:21:11 78° NNE 17:25:55 23° E
USA 238 DEB 4.5 17:15:47 10° SSE 17:21:13 27° ESE 17:23:37 22° E
USA 238 4.5 17:15:55 10° SSE 17:21:20 27° ESE 17:23:39 22° E
Unknown 3.8 17:17:31 10° WSW 17:21:39 68° NNW 17:23:59 25° ENE
SWAS 4.5 17:18:45 10° SSW 17:23:02 82° WNW 17:27:21 10° NNE
Unknown 3.8 17:19:11 10° WSW 17:23:19 67° NNW 17:25:34 26° ENE
Unknown 4.0 17:19:24 10° W 17:23:25 57° NNW 17:25:34 25° NE
EO 1 Delta rocket 3.8 17:19:41 10° S 17:24:18 87° W 17:29:11 10° N
Unknown 3.8 17:20:46 10° WSW 17:24:53 66° NNW 17:27:05 26° ENE
Falcon 9 debris 3.7 17:22:22 10° WNW 17:25:42 45° NNE 17:26:41 34° ENE
Unknown 3.9 17:22:30 10° WSW 17:26:37 65° NNW 17:28:45 27° ENE
Ariane Rocket 2.9 17:23:06 10° SSE 17:28:10 71° ENE 17:33:17 10° N
Cosmos 1242 Rocket 3.4 17:24:37 10° NNW 17:28:14 53° W 17:31:49 10° S
Cosmos 2100 Rocket 4.5 17:22:47 10° N 17:28:31 37° ENE 17:31:39 23° ESE
Unknown 3.9 17:25:53 10° W 17:30:00 63° NNW 17:31:59 29° NE
Cosmos 1703 3.5 17:26:40 10° NNW 17:30:36 70° W 17:34:29 10° S
Unknown 3.4 17:28:51 10° WNW 17:31:24 41° SSW 17:31:50 37° S
Starlink (trailer) 3.9 17:27:33 10° W 17:31:41 62° NNW 17:33:35 30° NE
Unknown 3.8 17:29:21 10° WNW 17:32:45 45° N 17:33:32 38° NE
Unknown 3.9 17:29:13 10° W 17:33:19 61° NNW 17:35:10 30° NE
Cosmos 2082 Rocket 2.5 17:28:29 10° NNW 17:34:01 47° NE 17:36:25 30° ESE
Unknown 3.9 17:30:50 10° W 17:34:56 61° NNW 17:36:43 31° NE
COSMOS 2406 3.5 17:29:38 10° NNW 17:35:23 69° WSW 17:41:04 10° SSE
SJ-6B 4.0 17:38:40 26° NE 17:38:40 26° NE 17:40:58 10° N
SPOT 3 Rocket 4.0 17:38:33 33° E 17:39:48 38° ENE 17:44:36 10° N
Cosmos 1153 Rocket 4.4 17:35:16 10° N 17:41:25 69° ENE 17:47:31 10° SSE
Unknown 4.0 17:37:25 10° W 17:41:30 57° NNW 17:43:00 35° NE
Unknown 4.0 17:37:34 10° W 17:41:40 58° NNW 17:43:09 35° NE
Unknown 4.0 17:38:18 10° W 17:42:23 57° NNW 17:43:51 36° NE
Lacrosse 5 2.1 17:38:08 10° NW 17:43:08 56° NNE 17:44:44 39° E
Cosmos 292 Rocket 3.7 17:38:28 10° SSW 17:43:14 85° WNW 17:48:01 10° NNE
Unknown 4.1 17:40:46 10° WNW 17:44:21 42° N 17:45:03 37° NNE
Unknown 4.1 17:42:18 10° W 17:46:23 56° NNW 17:47:40 38° NE
Cosmos 1812 Rocket 3.6 17:42:11 10° S 17:46:28 52° E 17:50:49 10° NNE
Unknown 4.0 17:42:34 10° W 17:46:40 56° NNW 17:47:56 38° NE
Cosmos 1777 Rocket 4.1 17:41:59 10° NNW 17:47:13 74° WSW 17:52:10 11° SSE
Cosmos 489 Rocket 4.4 17:41:13 10° SSW 17:47:26 88° WNW 17:53:42 10° NNE
NOSS 3-2 (A) 4.2 17:42:37 10° S 17:46:24 28° SE 17:46:24 28° SE
Unknown 4.1 17:44:22 10° W 17:48:27 54° NNW 17:49:39 39° NE
Meteor 2-10 4.4 17:45:01 10° SSW 17:50:03 62° WNW 17:55:04 10° N
MOS 1 4.2 17:46:09 15° SSE 17:50:54 75° ENE 17:56:34 10° NNW
Cosmos 1461 2.7 17:47:18 10° NW 17:51:21 67° NE 17:51:48 61° E
IRS-1A Rocket 4.2 17:46:06 10° SSE 17:51:37 86° WSW 17:57:11 10° NNW
Unknown 4.1 17:47:41 10° W 17:51:46 53° NNW 17:52:49 41° NE
Unknown 4.1 17:48:31 10° WNW 17:52:11 42° N 17:52:44 39° NNE
Unknown 4.1 17:48:10 10° W 17:52:14 54° NNW 17:53:16 41° NE
Cosmos 2016 Rocket 4.5 17:47:07 10° N 17:52:53 37° ENE 17:53:32 36° E
Unknown 4.1 17:49:16 10° W 17:53:21 53° NNW 17:54:20 42° NE
Cosmos 2084 Rocket 4.1 17:50:33 10° NNW 17:54:45 39° NE 17:54:50 39° NE
Unknown 4.2 17:51:08 10° WNW 17:54:52 43° N 17:55:25 40° NNE
YAOGAN 1 4.5 17:51:41 10° SSW 17:55:30 30° W 17:59:22 10° NNW
HJ-1C 3.6 17:55:35 49° SSW 17:56:17 68° WSW 17:59:40 10° NNW
Unknown 4.1 17:52:29 10° W 17:56:34 53° NNW 17:57:25 44° NNE
Cosmos 1844 Rocket 4.1 17:52:39 10° WSW 17:57:53 37° NW 18:03:07 10° NNE
H-2A R/B 2.3 17:57:23 45° E 17:57:55 46° ENE 18:03:04 10° N
Unknown 4.1 17:55:56 10° W 18:00:00 52° NNW 18:00:42 45° NNE
Unknown 4.1 17:57:37 10° W 18:01:40 51° N 18:02:18 46° NNE
Cosmos 1076 Rocket 3.4 17:57:27 10° N 18:01:51 75° E 18:02:16 68° SE
Cosmos 1939 Rocket 3.9 17:58:11 10° S 18:01:59 45° W 18:05:53 10° NNW
In-Cosmos 22 Rocket 4.2 17:57:54 10° N 18:03:08 51° ENE 18:03:28 50° E
Unknown 4.1 17:59:18 10° W 18:03:21 51° N 18:03:54 47° NNE
Cosmos 2061 Rocket 4.2 17:57:54 10° N 18:03:55 46° ENE 18:04:36 45° E
Unknown 4.1 18:00:58 10° W 18:05:01 50° N 18:05:30 47° NNE
Lacrosse 5 rocket 4.0 18:03:28 10° W 18:05:16 13° SW 18:07:05 10° SSW
Unknown 4.1 18:04:16 10° W 18:08:19 49° N 18:08:39 48° N
Unknown 4.2 18:06:02 10° W 18:10:04 49° N 18:10:20 48° N
Unknown 4.2 18:07:41 10° W 18:11:44 49° N 18:11:55 48° N
Unknown 4.2 18:09:17 10° W 18:13:19 49° N 18:13:26 49° N
Unknown 4.2 18:09:47 10° W 18:13:50 48° N 18:13:55 48° N
ATLAS CENTAUR R/B 3.9 18:13:34 10° NNW 18:15:40 13° NNE 18:16:01 13° NNE
Cosmos 2278 Rocket 2.1 18:10:31 10° SSW 18:16:12 87° WNW 18:21:56 10° NNE
Unknown 4.2 18:12:27 10° W 18:16:28 49° N 18:16:28 49° N
Unknown 4.3 18:15:51 10° W 18:19:43 48° NNW 18:19:43 48° NNW
CZ-2C R/B 3.6 18:20:56 48° NE 18:20:56 48° NE 18:26:02 10° N
Unknown 4.4 18:17:27 10° W 18:21:15 47° NNW 18:21:15 47° NNW
Unknown 4.4 18:19:26 10° W 18:23:07 46° NNW 18:23:07 46° NNW
Unknown 4.5 18:20:48 10° W 18:24:27 46° NNW 18:24:27 46° NNW
ATLAS 5 CENTAUR R/B 3.8 18:23:46 10° WNW 18:27:29 23° NNW 18:30:17 15° NNE
Cosmos 1898 Rocket 3.9 18:23:50 10° NNW 18:28:09 51° NNE 18:28:09 51° NNE
Cosmos 1459 Rocket 3.9 18:26:48 10° N 18:33:01 86° W 18:35:04 46° S
ADEOS Rocket 3.4 18:30:18 10° NNE 18:38:07 74° ESE 18:45:27 10° S
Resurs 01 Rocket 3.6 18:45:24 22° N 18:45:24 22° N 18:47:02 10° N
Cosmos 1802 Rocket 4.0 18:42:14 10° N 18:48:42 80° W 18:49:49 63° SSW
SJ 16-02 3.3 18:45:49 10° NNW 18:47:27 22° N 18:47:27 22° N
Cosmos 2173 Rocket 4.4 18:48:48 10° NNW 18:54:59 61° W 18:56:55 42° SSW
ARGOS 3.4 18:57:06 65° WNW 18:57:06 65° WNW 19:02:09 10° NNW
Cosmos 1833 Rocket 4.1 18:53:03 10° NW 18:58:01 33° WSW 18:59:52 27° SW
USA 238 DEB 3.7 19:04:45 10° SW 19:11:09 76° W 19:11:09 76° W
USA 238 3.7 19:04:52 10° SW 19:11:10 75° W 19:11:10 75° W
Cosmos 1725 Rocket 4.3 19:06:14 10° NNW 19:11:31 64° NNW 19:11:31 64° NNW
Cosmos 2082 Rocket 3.5 19:12:53 10° NW 19:17:57 34° WSW 19:18:18 33° WSW
Lacrosse 5 3.7 19:21:17 10° WNW 19:23:56 28° W 19:23:56 28° W
H-2A R/B 3.8 19:38:01 29° W 19:38:01 29° W 19:42:12 10° NNW
Cosmos 2278 Rocket 4.4 19:56:55 10° W 20:01:09 21° NW 20:04:37 13° N
